Weather History for Detroit Metro, MI

Change the Weather History Date:

Wednesday, March 26, 2014

  Actual Average Record
Temperature  
Mean Temperature 22 °F 41 °F  
Max Temperature 33 °F 50 °F 81 °F (2007)
Min Temperature 11 °F 32 °F 11 °F (2001)
Degree Days  
Heating Degree Days 43 24  
Month to date heating degree days 997 749  
Since 1 July heating degree days 6247 5302  
Cooling Degree Days 0 0  
Month to date cooling degree days 0 0  
Year to date cooling degree days 0 0  
Moisture  
Dew Point 8 °F    
Average Humidity 55    
Maximum Humidity 76    
Minimum Humidity 33    
Precipitation  
Precipitation 0.00 in 0.08 in 1.08 in (1934)
Month to date precipitation 1.43 1.87  
Year to date precipitation 7.17 5.85  
Snow  
Snow 0.00 in 0.20 in 3.60 in (1970)
Month to date snowfall 12.5 6.2  
Since 1 July snowfall 91.7 40.1  
Snow Depth 1.00 in    
Sea Level Pressure  
Sea Level Pressure 30.29 in    
Wind  
Wind Speed 6 mph (WSW)    
Max Wind Speed 15 mph    
Max Gust Speed 22 mph    
Visibility 10 miles    
Events      
T = Trace of Precipitation, MM = Missing Value Source: NWS Daily Summary

Daily Weather History Graph

Daily Weather History Graph

Search for Another Location

Airport:

Trip Planner

Search our weather history database for the weather conditions in past years. The results will help you decide how hot, cold, wet, or windy it might be!

Date:

Astronomy

Mar. 26, 2014 Rise Set
Actual Time 7:26 AM EDT 7:52 PM EDT
Civil Twilight 6:58 AM EDT 8:20 PM EDT
Nautical Twilight 6:25 AM EDT 8:53 PM EDT
Astronomical Twilight 5:51 AM EDT 9:27 PM EDT
Moon 4:38 AM EDT (3/26) 3:25 PM EDT (3/26)
Length of Visible Light 13h 22m
Length of Day
12h 26m
Waning Crescent, 22% of the Moon is Illuminated
Mar 26
Waning Crescent
Mar 30
New
Apr 7
First Quarter
Apr 15
Full
Apr 22
Last Quarter

Hourly Weather History & Observations

Time (EDT) Temp. Windchill Dew Point Humidity Pressure Visibility Wind Dir Wind Speed Gust Speed Precip Events Conditions
12:53 AM 16.0 °F 6.3 °F 5.0 °F 62% 30.21 in 10.0 mi WNW 6.9 mph - N/A   Mostly Cloudy
1:53 AM 16.0 °F 6.3 °F 3.9 °F 59% 30.22 in 10.0 mi WNW 6.9 mph - N/A   Scattered Clouds
2:53 AM 14.0 °F 5.1 °F 3.9 °F 64% 30.23 in 10.0 mi NW 5.8 mph - N/A   Clear
3:53 AM 14.0 °F 8.2 °F 5.0 °F 67% 30.24 in 10.0 mi NW 3.5 mph - N/A   Clear
4:53 AM 12.9 °F 6.9 °F 5.0 °F 71% 30.25 in 10.0 mi WNW 3.5 mph - N/A   Partly Cloudy
5:53 AM 12.0 °F 5.9 °F 6.1 °F 77% 30.28 in 10.0 mi WNW 3.5 mph - N/A   Partly Cloudy
6:53 AM 10.9 °F 4.7 °F 5.0 °F 77% 30.31 in 10.0 mi West 3.5 mph - N/A   Partly Cloudy
7:53 AM 12.9 °F - 5.0 °F 71% 30.32 in 10.0 mi Calm Calm - N/A   Partly Cloudy
8:53 AM 17.1 °F - 10.0 °F 74% 30.35 in 10.0 mi Calm Calm - N/A   Partly Cloudy
9:53 AM 19.9 °F 13.4 °F 10.9 °F 68% 30.37 in 10.0 mi WSW 4.6 mph - N/A   Scattered Clouds
10:53 AM 21.9 °F 13.4 °F 7.0 °F 53% 30.38 in 10.0 mi Variable 6.9 mph - N/A   Scattered Clouds
11:53 AM 25.0 °F 14.8 °F 8.1 °F 49% 30.37 in 10.0 mi West 10.4 mph - N/A   Scattered Clouds
12:53 PM 27.0 °F 19.5 °F 9.0 °F 47% 30.38 in 10.0 mi Variable 6.9 mph - N/A   Mostly Cloudy
1:53 PM 27.0 °F - 6.1 °F 41% 30.35 in 10.0 mi Calm Calm - N/A   Scattered Clouds
2:53 PM 28.9 °F - 5.0 °F 36% 30.32 in 10.0 mi Calm Calm - N/A   Partly Cloudy
3:53 PM 30.9 °F 24.3 °F 7.0 °F 37% 30.31 in 10.0 mi South 6.9 mph - N/A   Partly Cloudy
4:53 PM 32.0 °F 23.6 °F 7.0 °F 35% 30.29 in 10.0 mi West 10.4 mph - N/A   Scattered Clouds
5:53 PM 32.0 °F 23.6 °F 9.0 °F 38% 30.27 in 10.0 mi SW 10.4 mph 21.9 mph N/A   Scattered Clouds
6:53 PM 30.9 °F 21.7 °F 12.0 °F 46% 30.27 in 10.0 mi SSE 11.5 mph - N/A   Mostly Cloudy
7:53 PM 28.9 °F 21.1 °F 12.9 °F 51% 30.27 in 10.0 mi South 8.1 mph - N/A   Scattered Clouds
8:53 PM 27.0 °F 18.0 °F 14.0 °F 58% 30.27 in 10.0 mi SSE 9.2 mph - N/A   Partly Cloudy
9:53 PM 26.1 °F 18.4 °F 15.1 °F 63% 30.27 in 10.0 mi SE 6.9 mph - N/A   Partly Cloudy
10:53 PM 26.1 °F 18.4 °F 17.1 °F 69% 30.27 in 10.0 mi SE 6.9 mph - N/A   Scattered Clouds
11:53 PM 27.0 °F 18.7 °F 17.1 °F 66% 30.25 in 10.0 mi SE 8.1 mph - N/A   Mostly Cloudy